Voltar ao catálogo

SL-3 DEB

AtivoSSO
NORAD 24893·DEBRIS·🇷🇺 Russia

Lançado Apr 20, 1988 de Baikonur Cosmodrome

Loading…

Próximas Passagens (próximas 24 horas)

TLE

AtualizadoSource: Space-Track

Época: Sep 14, 2026, 09:34 UTC

1 24893U 88032C   26257.39930426  .00000889  00000-0  63839-4 0  9993
2 24893  97.6457 228.3492 0021741 242.6029 269.3333 15.06720003842294

Acompanhe SL-3 DEB em tempo real com AllMySat

Download on the App Store